Home > Weather > Weinheim > Past weeks

Flag for Germany Past Weather in Weinheim, Baden-Württemberg, Germany — Yesterday and Last 2 Weeks

Now
61 °F

Clear.


Feels Like: 61 °F
Forecast: 54 / 79 °F
Wind: 5 mph from East

Location: Frankfurt-M-Flughafen Airport

Current Time: May 27, 2016 at 2:25:50 AM

Latest Report: May 27, 2016 at 1:50 AM


Visibility: 10 mi

Pressure: 29.95 "Hg

Humidity: 72%

Dew Point: 52 °F

Location of WeinheimLocation

Past Weather in Weinheim — Graph

°F

Weinheim Temperature Yesterday

Maximum temperature yesterday: 75 °F (at 4:50 PM)
Minimum temperature yesterday: 45 °F (at 4:20 AM)
Average temperature yesterday: 61 °F

High & Low Weather Summary for the Past Weeks

 TemperatureHumidityPressure
High81 °F (May 22, 3:20 PM)100% (May 13, 11:50 PM)30.12 "Hg (May 13, 11:50 PM)
Low41 °F (May 15, 5:50 AM)24% (May 22, 3:50 PM)29.45 "Hg (May 12, 8:20 PM)
Average57 °F68%29.91 "Hg
* Reported May 12 1:20 AM — May 27 1:20 AM, Weinheim, Weather by CustomWeather, © 2016

Note: Actual official high and low records may vary slightly from our data, if they occured in-between our weather recording intervals... More about our weather records

Advertising

Weinheim Weather History for the Previous 24 Hours

Scroll right to see more
 ConditionsComfort  
Time TempWeatherWind HumidityBarometerVisibility
1:20 AM
Fri, May 27
63 °FClear.5 mph68%29.95 "Hg10 mi
12:50 AM64 °FClear.8 mph60%29.95 "Hg10 mi
12:20 AM64 °FClear.8 mph60%29.95 "Hg10 mi
11:50 PM
Thu, May 26
64 °FClear.6 mph60%29.98 "Hg10 mi
11:20 PM64 °FClear.6 mph64%29.95 "Hg10 mi
10:50 PM66 °FClear.7 mph56%29.98 "Hg10 mi
10:20 PM66 °FPassing clouds.6 mph56%29.98 "HgN/A
9:50 PM70 °FPassing clouds.8 mph46%29.98 "HgN/A
9:20 PM70 °FSunny.10 mph46%29.95 "Hg10 mi
8:50 PM70 °FPassing clouds.9 mph43%29.95 "HgN/A
8:20 PM70 °FPassing clouds.10 mph43%29.95 "HgN/A
7:50 PM72 °FSunny.9 mph41%29.95 "Hg10 mi
7:20 PM73 °FPassing clouds.5 mph36%29.95 "HgN/A
6:50 PM75 °FSunny.3 mph34%29.95 "Hg10 mi
6:20 PM75 °FPassing clouds.5 mph31%29.95 "HgN/A
5:50 PM75 °FSunny.2 mph31%29.98 "Hg10 mi
5:20 PM73 °FSunny.2 mph36%29.98 "Hg10 mi
4:50 PM75 °FSunny.3 mph31%29.98 "Hg10 mi
4:20 PM73 °FSunny.5 mph33%29.98 "Hg10 mi
3:50 PM73 °FPassing clouds.3 mph38%29.98 "HgN/A
3:20 PM73 °FSunny.5 mph38%29.98 "Hg10 mi
2:50 PM72 °FSunny.2 mph41%30.01 "Hg10 mi
2:20 PM72 °FSunny.2 mph41%30.01 "Hg10 mi
1:50 PM72 °FPassing clouds.3 mph41%30.01 "HgN/A
1:20 PM70 °FPassing clouds.3 mph43%30.01 "HgN/A
12:50 PM70 °FPassing clouds.5 mph46%30.01 "HgN/A
12:20 PM68 °FScattered clouds.6 mph53%30.01 "HgN/A
11:50 AM66 °FScattered clouds.3 mph52%30.01 "HgN/A
11:20 AM64 °FPartly sunny.6 mph64%30.04 "HgN/A
10:50 AM63 °FPartly sunny.3 mph68%30.04 "HgN/A
10:20 AM59 °FPartly sunny.7 mph77%30.04 "HgN/A
9:50 AM55 °FScattered clouds.7 mph88%30.04 "Hg4 mi
9:20 AM54 °FFog.6 mph88%30.04 "Hg2 mi
8:50 AM52 °FFog.5 mph94%30.04 "Hg1 mi
8:20 AM50 °FFog.5 mph100%30.04 "Hg1 mi
7:50 AM50 °FFog.6 mph100%30.04 "Hg0 mi
7:20 AM48 °FFog.6 mph100%30.04 "Hg0 mi
6:50 AM48 °FFog.6 mph94%30.01 "Hg0 mi
6:20 AM46 °FCool.6 mph93%30.01 "Hg1 mi
5:50 AM46 °FPassing clouds.3 mph93%30.01 "Hg0 mi
5:20 AM46 °FCool.5 mph93%30.01 "Hg2 mi
4:50 AM45 °FFog.2 mph100%30.01 "Hg4 mi
4:20 AM45 °FFog.1 mph100%30.01 "HgN/A
3:50 AM46 °FFog.3 mph93%30.01 "HgN/A
3:20 AM46 °FFog.2 mph93%30.01 "HgN/A
2:50 AM46 °FFog.1 mph93%30.01 "HgN/A
2:20 AM46 °FFog.2 mph100%30.01 "HgN/A
Weather by CustomWeather, © 2016

See weather overviewHow to use our weather pages